Terminal Aerodrome Forecast
Issued by NWS

Home | Current Version | Previous Version | Text Only | Print | Product List | Glossary On
Versions: 1 2 3 4 5 6 7 8 9 10 11 12 13 14 15 16 17 18 19 20 21 22 23 24 25 26 27 28 29 30 31
000
FTUS45 KCYS 021100
TAFLAR
TAF
KLAR 021120Z 0212/0312 19009KT P6SM SKC
     FM021700 25016G26KT P6SM SKC
     FM030100 21009KT P6SM SKC=

USA.gov is the U.S. government's official web portal to all federal, state and local government web resources and services.